Weather observations for the past three days for
Malmstrom Air Force Base
Imperial (Metric)
Date Time (mdt) Wind (mph) Vis. (mi.) Weather Sky Cond. Temperature (ºF) Relative Humidity Wind Chill (°F) Heat Index (°F) Pressure Precipitation (in)
Air Dwpt 6 hour altimeter (in) sea level (mb) 1 hr 3 hr 6 hr
Max. Min.
12 21:55 E 5 10.00 Fair CLR 70.7 56.5 61% 30.05 1014.8
12 20:55 E 5 10.00 Fair CLR 76.3 56.3 50% 78 30.03 1014.1
12 19:55 E 10 10.00 Fair CLR 82.2 54.7 39% 82 30.03 1013.3
12 18:55 NE 7 10.00 Fair CLR 84.6 49.6 30% 82 30.02 1013.4
12 17:55 NE 5 G 17 10.00 Fair CLR 85.1 52.7 85.6 77.9 33% 83 30.03 1014.1
12 16:55 NE 10 10.00 Fair CLR 85.3 53.8 34% 84 30.04 1014.4
12 15:55 N 12 G 17 10.00 Fair CLR 85.1 54.3 35% 84 30.06 1014.7
12 14:55 N 15 10.00 Fair CLR 83.8 54.7 37% 83 30.07 1015.4
12 13:55 N 12 10.00 Fair CLR 82.2 54.7 39% 82 30.08 1015.8
12 12:55 NW 8 10.00 Fair CLR 79.5 54.3 42% 80 30.09 1015.4
12 11:55 NW 12 10.00 Fair CLR 78.3 56.3 78.3 59 47% 79 30.09 1015.4
12 10:55 NW 12 10.00 Fair CLR 75 55.6 51% 78 30.09 1015.1
12 09:55 NW 12 10.00 Fair CLR 73.6 55.4 53% 30.08 1014.4
12 08:55 NW 12 10.00 Fair CLR 71.2 50 47% 30.06 1014.0
12 07:55 W 7 10.00 Fair CLR 70.2 46 42% 30.03 1012.6
12 06:55 W 8 10.00 Fair CLR 65.7 46.6 50% 30.01 1011.9
12 05:55 W 3 10.00 Fair CLR 61.2 48 79.7 57.2 62% 29.99 1011.6
12 04:55 SW 6 10.00 Fair CLR 60.1 48.2 65% 29.97 1011.3
12 03:55 SW 6 10.00 Fair CLR 63.3 47.3 56% 29.96 1010.6
12 02:55 SW 6 10.00 Fair CLR 64.4 48.7 57% 29.95 1009.9
12 01:55 S 3 10.00 Fair CLR 63 51.1 65% 29.97 1010.9
12 00:55 W 6 10.00 Fair CLR 76.8 48.6 37% 78 29.96 1009.5
11 23:55 W 5 10.00 Partly Cloudy SCT130 75.4 45 96.4 75.4 34% 77 29.95 1009.5
11 22:55 Calm 10.00 A Few Clouds FEW140 83.8 44.2 25% 81 29.94 1008.4
11 21:55 N 6 10.00 Mostly Cloudy BKN150 87.6 41.5 20% 84 29.93 1008.1
11 20:55 E 5 10.00 Overcast BKN130 OVC150 85.6 51.4 31% 84 29.91 1008.1
11 19:55 N 8 10.00 Fair CLR 92.3 49.1 23% 89 29.89 1007.4
11 18:55 S 3 10.00 Fair CLR 95 44.8 18% 91 29.88 1006.7
11 17:55 SW 5 10.00 Fair CLR 95.2 43.5 96.6 89.1 17% 91 29.89 1007.8
11 16:55 Calm 10.00 Partly Cloudy SCT230 94.5 42.8 17% 90 29.91 1008.8
11 15:55 S 7 10.00 Partly Cloudy SCT160 95.7 40.6 15% 91 29.92 1008.8
11 14:55 SW 7 10.00 Fair CLR 95.5 42.1 16% 91 29.93 1009.2
11 13:55 S 7 10.00 Mostly Cloudy BKN140 94.6 41.4 16% 90 29.95 1009.5
11 12:55 W 6 10.00 Fair CLR 92.5 44.2 19% 89 29.97 1010.6
11 11:55 W 3 10.00 Fair CLR 89.1 45.1 89.1 66.7 22% 86 29.98 1011.6
11 10:55 SW 8 10.00 Partly Cloudy SCT130 86.7 46.6 25% 84 29.97 1010.6
11 09:55 SW 6 10.00 Mostly Cloudy FEW170 BKN190 82.8 49.8 32% 81 29.99 1010.5
11 08:55 Calm 10.00 Partly Cloudy SCT180 77 49.5 38% 78 29.98 1010.5
11 07:55 SW 8 10.00 Mostly Cloudy BKN150 71.4 46.4 41% 29.97 1010.2
11 06:55 W 9 10.00 Overcast OVC170 71.8 45.5 39% 29.97 1009.8
11 05:55 SW 8 10.00 Overcast OVC150 66.6 46.2 71.6 61.7 48% 29.96 1009.8
11 04:55 Calm 10.00 A Few Clouds FEW160 63.3 45.9 53% 29.96 1010.2
11 03:55 SW 7 10.00 Fair CLR 64.9 45.9 50% 29.95 1009.9
11 02:55 SW 3 10.00 Fair CLR 65.7 46.6 50% 29.94 1009.1
11 01:55 S 8 10.00 Fair CLR 68.5 45.1 43% 29.95 1009.5
11 00:55 S 6 10.00 Fair CLR 68.7 45.9 44% 29.94 1009.5
10 23:55 S 5 10.00 Fair CLR 66 49.5 97.5 66 55% 29.94 1010.2
10 22:55 S 5 10.00 Fair CLR 73.8 46.6 38% 29.94 1009.9
10 21:55 NW 6 10.00 Fair CLR 86 41.5 21% 83 29.94 1008.8
10 20:55 NW 6 10.00 Fair CLR 89.2 45.3 22% 86 29.93 1008.8
10 19:55 NW 7 10.00 Fair CLR 93.7 47.8 21% 90 29.92 1008.5
10 18:55 W 10 10.00 Fair CLR 96.4 44.4 17% 92 29.91 1008.5
10 17:55 W 14 10.00 Fair CLR 97.5 43.7 98.1 88.9 16% 93 29.91 1008.8
10 16:55 Calm 10.00 Fair CLR 97.3 40.1 14% 93 29.91 1008.8
10 15:55 NW 7 10.00 Fair CLR 96.8 37.4 13% 92 29.93 1009.8
10 14:55 SW 9 10.00 Fair CLR 96.8 35.6 12% 92 29.93 1009.8
10 13:55 W 9 9.00 Fair CLR 95 41.7 16% 91 29.95 1010.2
10 12:55 Calm 10.00 Fair CLR 93.2 46.4 20% 90 29.96 1011.1
10 11:55 Calm 10.00 Fair CLR 89.6 53.6 29% 87 29.98 1011.8
10 10:55 Calm 10.00 Fair CLR 85.3 53.8 34% 84 29.98 1011.3
10 09:55 Calm 10.00 Fair CLR 80.8 53.4 39% 80 29.99 1012.3
10 08:55 W 3 10.00 Fair CLR 74.1 52 46% 30 1012.7
10 07:55 Calm 10.00 Fair CLR 70.2 51.1 51% 29.99 1012.0
10 06:55 Calm 10.00 Fair CLR 63.9 52.7 67% 30 1012.3
10 05:56 SW 3 10.00 Fair CLR 59 50 72% 30 1013.1
10 04:55 SW 3 10.00 Fair CLR 60.6 50.4 69% 30 1012.3
10 03:55 Calm 10.00 Fair CLR 65.5 50.7 59% 30 1011.9
10 02:55 S 6 9.00 Fair CLR 63.5 49.3 60% 30 1012.3
10 01:55 Calm 10.00 Fair CLR 64 48.9 58% 30.01 1012.6
10 00:55 Calm 10.00 Fair CLR 65.5 47.8 53% 30.03 1013.3
09 23:55 SE 6 10.00 Fair CLR 66.2 48.6 90.5 66.2 53% 30.04 1014.1
09 22:55 S 7 10.00 Fair CLR 69.8 52.3 54% 30.03 1013.7
Date Time (mdt) Wind (mph) Vis. (mi.) Weather Sky Cond. Air Dwpt Max. Min. Relative Humidity Wind Chill (°F) Heat Index (°F) altimeter (in) sea level (mb) 1 hr 3 hr 6 hr
6 hour
Temperature (ºF) Pressure Precipitation (in)